Location: Castellar de la Frontera
(36.3200°N, 5.4500°W)
Time: 17:54:54
(UTC+02:00)

ISS - Visible Passes

Search period start: 25 May 2020 00:00
Search period end: 04 June 2020 00:00
Orbit: 417 x 420 km, 51.6° (Epoch: 26 May)

Date Brightness Start Highest point End Pass type
(mag) Time Alt. Az. Time Alt. Az. Time Alt. Az.
25 May -0.6 00:46:32 10° N 00:47:37 12° NNE 00:47:37 12° NNE visible
26 May -0.2 01:34:11 10° NNW 01:34:16 10° NNW 01:34:16 10° NNW visible
27 May -0.9 00:46:40 10° NNW 00:48:01 18° N 00:48:01 18° N visible
27 May -1.2 23:59:17 10° NNW 00:01:24 16° NNE 00:01:47 15° NE visible
28 May -0.9 23:12:09 10° N 23:13:21 11° NNE 23:14:32 10° NE visible
29 May -1.0 00:47:23 10° NW 00:48:31 19° NW 00:48:31 19° NW visible
29 May -2.2 23:59:43 10° NNW 00:02:20 32° NNE 00:02:20 32° NNE visible
30 May -1.8 23:12:10 10° NNW 23:14:52 22° NNE 23:16:11 18° ENE visible
31 May -0.8 00:48:35 10° WNW 00:49:06 13° WNW 00:49:06 13° WNW visible
31 May -1.3 22:24:45 10° NNW 22:26:50 15° NNE 22:28:55 10° ENE visible
01 Jun -2.6 00:00:36 10° NW 00:03:00 43° WNW 00:03:00 43° WNW visible
01 Jun -3.5 23:12:48 10° NW 23:16:06 57° NE 23:16:55 42° E visible
02 Jun -2.5 22:25:05 10° NNW 22:28:11 33° NE 22:30:53 12° E visible
03 Jun -1.5 00:02:10 10° WNW 00:03:49 19° WSW 00:03:49 19° WSW visible
03 Jun -2.9 23:13:53 10° WNW 23:17:03 39° SW 23:17:50 33° SSW visible
